Date,TemperatureHighF,TemperatureAvgF,TemperatureLowF,DewpointHighF,DewpointAvgF,DewpointLowF,HumidityHigh,HumidityAvg,HumidityLow,PressureMaxIn,PressureMinIn,WindSpeedMaxMPH,WindSpeedAvgMPH,GustSpeedMaxMPH,PrecipitationSumIn
2013-2-1,41.4,35.6,26.8,25.0,6.8,-7.4,62,32,18,30.37,29.86,21,6,36,0.43
2013-2-2,45.1,33.7,19.0,33.9,4.7,-7.0,73,31,19,30.38,30.01,12,3,19,0.00
2013-2-3,49.3,42.0,34.3,34.1,26.1,18.2,82,55,34,30.00,29.83,13,3,17,0.00
2013-2-4,48.6,38.8,25.7,24.6,17.9,9.3,73,45,23,30.12,29.96,9,2,17,0.00
2013-2-5,62.6,47.6,37.8,32.9,28.2,23.8,75,49,23,29.99,29.85,8,2,15,0.00
2013-2-6,63.3,46.6,30.7,36.0,25.4,15.8,83,50,16,30.27,29.95,11,2,17,0.00
2013-2-7,48.6,42.4,36.7,40.4,35.2,30.5,90,76,60,30.31,29.96,11,3,17,0.38
2013-2-8,55.2,46.0,39.2,42.6,37.4,25.5,91,74,44,30.02,29.79,16,6,31,0.61
2013-2-9,53.8,40.9,28.9,25.7,18.3,7.9,72,44,18,30.34,30.02,14,3,23,0.00
2013-2-10,53.4,39.8,25.7,39.4,18.7,11.8,79,47,19,30.47,30.19,9,2,15,0.02
2013-2-11,63.5,56.9,45.5,57.5,51.8,39.4,93,83,77,30.19,29.89,12,4,18,0.05
2013-2-12,61.3,54.1,47.8,52.6,31.4,16.2,83,47,19,30.06,29.88,11,2,17,0.00
2013-2-13,48.7,45.9,43.2,44.9,41.6,33.7,92,85,61,29.94,29.60,9,2,17,0.22
2013-2-14,52.0,41.9,30.4,35.7,29.6,25.6,85,64,39,30.05,29.81,9,1,14,0.00
2013-2-15,62.6,44.9,28.6,37.3,28.7,21.7,85,59,22,30.07,29.90,9,1,14,0.00
2013-2-16,47.3,36.9,30.6,33.5,30.0,24.0,87,77,57,29.95,29.80,9,2,15,0.44
2013-2-17,37.4,30.5,23.2,25.8,6.0,-3.7,81,39,18,30.26,29.89,21,4,28,0.15
2013-2-18,51.4,35.6,17.6,23.9,12.5,4.5,73,43,18,30.40,30.24,9,2,14,0.00
2013-2-19,53.1,44.6,36.1,48.6,36.7,23.4,90,74,53,30.23,29.83,15,4,25,0.11
2013-2-20,53.8,41.4,27.7,36.9,16.3,4.9,91,41,17,30.12,29.93,11,3,18,0.00
2013-2-21,55.6,41.4,24.6,21.0,13.7,6.8,69,35,17,30.24,30.08,9,2,13,0.00
2013-2-22,42.6,35.9,32.0,31.9,27.5,17.1,85,73,36,30.34,30.11,9,2,12,0.37
2013-2-23,43.3,39.7,35.6,40.9,36.8,31.3,92,89,84,30.11,29.79,7,1,13,0.74
2013-2-24,63.3,49.8,37.4,44.3,35.4,19.5,92,64,20,30.02,29.77,14,2,17,0.07
2013-2-25,42.4,37.8,33.3,30.9,21.2,15.5,77,51,41,30.21,30.02,10,1,15,0.00
2013-2-26,57.6,45.4,35.4,55.3,39.1,20.6,94,80,52,30.12,29.53,21,3,27,0.99
2013-2-27,60.4,50.1,43.3,44.3,37.4,31.1,91,65,34,29.76,29.59,11,4,16,0.00
2013-2-28,49.3,42.1,33.6,36.7,28.4,19.7,86,60,32,29.83,29.67,17,2,24,0.00